This is the latest recevied weather packets stored in our database for station/object WR7DW-3. If no packets are shown the sender has not sent any weather packets the latest 10 day(s).
| Time | Temp. | Humidity | Pressure | Rain* | Wind** | Luminosity | Snow |
|---|---|---|---|---|---|---|---|
| 1777409997 | -0.56° C | 98% | 1014.7 hPa | 0 mm | - | - | - |
| 1777409098 | -0.56° C | 98% | 1014.7 hPa | 0 mm | - | - | - |
| 1777408198 | -0.56° C | 98% | 1014.7 hPa | 0 mm | - | - | - |
| 1777407298 | 0° C | 98% | 1014.8 hPa | 0 mm | - | - | - |
| 1777406398 | 0° C | 98% | 1014.8 hPa | 0 mm | - | - | - |
| 1777405499 | 0° C | 98% | 1014.8 hPa | 0 mm | - | - | - |
| 1777404598 | -0.56° C | 98% | 1014.9 hPa | 0 mm | - | - | - |
| 1777403698 | -1.11° C | 98% | 1015.1 hPa | 0 mm | - | - | - |
| 1777402798 | -1.11° C | 98% | 1014.9 hPa | 0 mm | - | - | - |
| 1777401898 | -0.56° C | 98% | 1014.7 hPa | 0 mm | - | - | - |
| 1777400998 | -1.11° C | 98% | 1014.8 hPa | 0 mm | - | - | - |
| 1777400098 | -1.11° C | 98% | 1014.7 hPa | 0 mm | - | - | - |
| 1777399198 | -1.11° C | 98% | 1014.8 hPa | 0 mm | - | - | - |
| 1777398298 | -1.11° C | 98% | 1014.7 hPa | 0 mm | - | - | - |
| 1777397398 | -1.67° C | 98% | 1014.7 hPa | 0 mm | - | - | - |
| 1777396498 | -1.67° C | 98% | 1014.8 hPa | 0 mm | - | - | - |
| 1777394698 | -2.22° C | 98% | 1014.6 hPa | 0 mm | - | - | - |
| 1777393798 | -2.22° C | 98% | 1014.6 hPa | 0 mm | - | - | - |
| 1777392898 | -2.22° C | 97% | 1014.4 hPa | 0 mm | - | - | - |
| 1777391998 | -2.22° C | 97% | 1014.4 hPa | 0 mm | - | - | - |
| 1777391098 | -2.78° C | 97% | 1014.5 hPa | 0 mm | - | - | - |
| 1777390198 | -2.78° C | 97% | 1014.2 hPa | 0 mm | - | - | - |
| 1777389298 | -2.78° C | 97% | 1014.1 hPa | 0 mm | - | - | - |
| 1777388398 | -2.78° C | 97% | 1014.2 hPa | 0 mm | - | - | - |
| 1777387498 | -3.33° C | 97% | 1014.2 hPa | 0 mm | - | - | - |
* Rain latest hour (hover to see other rain measurements)
** Current wind speed in m/s (hover to see current wind gust speed)